This is the latest recevied weather packets stored in our database for station/object W8UFO-13. If no packets are shown the sender has not sent any weather packets the latest 10 day(s).
| Time | Temp. | Humidity | Pressure | Rain* | Wind** | Luminosity | Snow |
|---|---|---|---|---|---|---|---|
| 1777994657 | 22.22° C | 59% | 1017 hPa | 0 mm | - | - | - |
| 1777994357 | 21.67° C | 58% | 1016.8 hPa | 0 mm | - | - | - |
| 1777994057 | 21.67° C | 60% | 1016.7 hPa | 0 mm | - | - | - |
| 1777993757 | 21.11° C | 59% | 1016.6 hPa | 0 mm | - | - | - |
| 1777993457 | 21.67° C | 59% | 1016.8 hPa | 0 mm | - | - | - |
| 1777993157 | 21.11° C | 60% | 1016.8 hPa | 0 mm | - | - | - |
| 1777992857 | 21.11° C | 60% | 1016.8 hPa | 0 mm | - | - | - |
| 1777992557 | 21.11° C | 59% | 1016.9 hPa | 0 mm | - | - | - |
| 1777992256 | 20.56° C | 62% | 1016.7 hPa | 0 mm | - | - | - |
| 1777991956 | 20.56° C | 62% | 1016.7 hPa | 0 mm | - | - | - |
| 1777991657 | 20° C | 61% | 1016.8 hPa | 0 mm | - | - | - |
| 1777991357 | 20° C | 61% | 1016.7 hPa | 0 mm | - | - | - |
| 1777991057 | 20° C | 60% | 1016.8 hPa | 0 mm | - | - | - |
| 1777990756 | 20° C | 60% | 1016.7 hPa | 0 mm | - | - | - |
| 1777990457 | 20° C | 61% | 1016.8 hPa | 0 mm | - | - | - |
| 1777989856 | 20° C | 61% | 1017 hPa | 0 mm | - | - | - |
| 1777989557 | 19.44° C | 61% | 1017.1 hPa | 0 mm | - | - | - |
| 1777989256 | 19.44° C | 62% | 1017.1 hPa | 0 mm | - | - | - |
| 1777988956 | 19.44° C | 62% | 1017 hPa | 0 mm | - | - | - |
| 1777988657 | 18.89° C | 64% | 1016.9 hPa | 0 mm | - | - | - |
| 1777988357 | 18.33° C | 65% | 1016.9 hPa | 0 mm | - | - | - |
| 1777988056 | 18.33° C | 65% | 1016.9 hPa | 0 mm | - | - | - |
| 1777987757 | 18.33° C | 66% | 1016.8 hPa | 0 mm | - | - | - |
| 1777987457 | 17.78° C | 67% | 1016.8 hPa | 0 mm | - | - | - |
| 1777987157 | 17.78° C | 66% | 1016.8 hPa | 0 mm | - | - | - |
* Rain latest hour (hover to see other rain measurements)
** Current wind speed in m/s (hover to see current wind gust speed)